Погода в Алдане

Погода в Алдане : погода сейчас, прогноз погоды и архив. Всё, что Вы хотите узнать о погоде в Алдане!

Хотите узнать прогноз погоды в Алдане? Тогда Вам сюда: Погода в Алдане

Поиск расширенной информации на нашем сайте:

Другие новости

Новости СМИ2

Главная страница сайта

Новости сайта

03.07.2017

Напоминаем, что на нашем специализированном сайте Метеоцентр.Азия вы можете получить высокодетализированные автоматические прогнозы погоды по пунктам России, СНГ и мира в авиационном формате (включающие направление и скорость ветра, видимость, явления погоды, количество и форму облачности, нижнюю и верхнюю границу облачности).


Погода в Алдане - сегодня

Время (UTC), дата Ветер
(°,м/с) 
Видим.   Явления Облачность Т
(°С)
Тd
(°С)
f(%) Тe
(°С)
Pmin
(гПа)
dP
(гПа)
Po
(мм)
O2
(г/м3)
Тmin Tmax R s Состояние
почвы
09 21.06.18 130 (ЮВ) 20000 м  {гроза, ливн. осадки}  8/3 600 м кучево-дожд., средняя, верхняя 
[Cb cap|Ac trans|Ci fib]
+12.4 +9.9 85 +17  997.8  0.1  691  264           
15 21.06.18 тихо ()   20000 м  слаб. ливневой дождь  10/10 600 м кучево-дожд. 
[Cb cap]
+9.9 +8.9 93 +11  999.4  0.2  691  267           
18 21.06.18 020 (С) 10 км  слаб. ливневой дождь  10/10 300 м кучево-дожд. 
[Cb cap]
+10.7 +10.1 96 +15  999.9  0.7  692  266           
21 21.06.18 020 (С) 2000 м  дымка{ливн. осадки, туман}  10/10 300 м кучево-дожд. 
[Cb cap]
+10.1 +9.7 97 +12  1001.7  1.5  693  267           
03 22.06.18 350 (С) 10 км    10/9 300 м кучево-дожд., верхняя 
[Cb cap|Cs]
+11.9 +8.9 82 +13  1003.2  0.7  694  266           
06 22.06.18 050 (СВ) 10 км    10/9 300 м кучево-дожд., верхняя 
[Cb cap|Cs]
+12.6 +9.2 80 +15  1003.8  0.8  695  266           
09 22.06.18 330 (СЗ) 20000 м  {ливн. осадки}  8/6 600 м кучево-дожд., средняя 
[Cb cap|Ac trans]
+13.8 +10.4 80 +17  1004  0.5  695  265           
15 22.06.18 тихо ()   20000 м    9/6 600 м кучево-дожд., средняя, верхняя 
[Cb cap|Ac trans|Ci fib]
+11.5 +10.5 94 +15  1006.1  0.6  696  267           
18 22.06.18 тихо ()   10 км    10/10 300 м кучево-дожд. 
[Cb cap]
+10.9 +10.3 96 +14  1006.8  0.5  697  268           
21 22.06.18 тихо ()   4000 м  слаб. морось  10/10 200 м 
[St]
+11 +10.4 96 +14  1007.9  697  268           
03 23.06.18 300 (СЗ) 20000 м    9/9 600 м кучево-дожд. 
[Cb cap]
+14.7 +10.7 77 +20  1008  0.3  698  265           
06 23.06.18 110 (В) 20000 м    9/9 600 м кучево-дожд. 
[Cb cap]
+15.7 +10.6 72 +20  1007.9  0.3  698  264           
09 23.06.18 110 (В) 20000 м    9/8 600 м кучево-дожд., средняя, верхняя 
[Cb cap|Ac trans|Ci fib]
+19 +10.7 59 +25  1006.7  -0.4  698  261           
12 23.06.18 тихо ()   20000 м    9/4 600 м средняя 
[Sc diur, vesp|Ac trans]
+17.5 +11.3 67 +22  1007.7  0.5  698  262    +20       
15 23.06.18 тихо ()   20000 м    ясно 
+10.2 +9.6 96 +12  1010  0.2  699  270           
18 23.06.18 тихо ()   20000 м    9/9 1000 м 
[Sc]
+9.6 +8.6 93 +10  1009.9  -0.2  698  270           
21 23.06.18 тихо ()   20000 м    9/9 1000 м 
[Sc]
+11.6 +9.6 88 +14  1009.4  698  268           
00 24.06.18 тихо ()   20000 м    3/3 1000 м 
[Sc]
+18.4 +10.6 60 +22  1007.5  0.1  699  262  +9        влажная 
03 24.06.18 320 (СЗ) 20000 м    5/5 1000 м 
[Cu med, cong]
+20.8 +11.4 55 +25  1006.4  -0.5  698  259           
06 24.06.18 340 (С) 20000 м    6/6 1000 м 
[Cu med, cong]
+23.8 +10.9 44 +28  1004.1  -1.4  697  256           
09 24.06.18 060 (СВ) 20000 м    8/5 1000 м верхняя 
[Cu med, cong|Ci fib]
+23.6 +10.4 43 +27  1003.3  -0.8  697  256           
12 24.06.18 тихо ()   20000 м    6/0 средняя, верхняя 
[Ac trans|Ci fib]
+19.7 +11.6 60 +25  1004.2  -0.1  696  259    +25       
15 24.06.18 тихо ()   20000 м    5/3 1000 м верхняя 
[Cu hum|Ci fib]
+13.6 +11.2 85 +18  1005.9  696  265           
18 24.06.18 тихо ()   20000 м    6/3 1000 м верхняя 
[Cu hum|Ci fib]
+11.6 +9 84 +13  1006.2  -0.2  696  267           
21 24.06.18 200 (Ю) 20000 м    4/3 1000 м верхняя 
[Cu hum|Ci fib]
+14.3 +9 70 +17  1005.2  -0.2  696  265           
Время (UTC), дата Ветер
(°,м/с) 
Видим.   Явления Облачность Т
(°С)
Тd
(°С)
f(%) Тe
(°С)
Pmin
(гПа)
dP
(гПа)
Po
(мм)
O2
(г/м3)
Тmin Tmax R s Состояние
почвы

Для получения пояснительной информации подведите курсор к названию столбца.

ПОГОДА в Алдане - архив

Всё, что Вы хотите узнать о погоде в Алдане - удобно и подробно!

Выберите нужную дату (начиная с 1 января 2015* года) и нажмите кнопку "Найти".
Будут отображены архивные сводки погоды по пункту Алдан, начиная с указанной даты.


Отображать данные в формате CSV (для использования в таблицах Excel)


Внимание! Наш архив погоды предназначен исключительно для личного некоммерческого использования в познавательных целях. Если Вам необходимы официальные справки о состоянии погоды (для производственных, юридических, коммерческих и т.п. целей), обращайтесь в органы Росгидромета.

*Примечание: данная дата относится к архиву по метеостанциям СССР (Россия, СНГ, Балтия).
Архив по метеостанциям Зарубежной Европы и Азии (кроме Китая) хранится 10 дней, по другим регионам земного шара (Китай, Африка, Америка, Австралия, Океания) - 1 день.

Алдан - район местоположения метеостанции


Название, широта, долгота, высота метеостанции:
Алдан 58.6°ш. 125.4°д. 79 м над ур. моря [Российская Федерация]

Дополнительная информация

В oтличие oт бoльшинства пoгoдных сайтoв мы публикуем пoдрoбную метеoинфoрмацию в детальнoм прoфессиoнальнoм фoрмате.

Характеристики температуры и влажнoсти вoздуха измеряются на высoте 2 м в тени вдали oт зданий и деревьев.
Скoрoсть ветра измеряется на высoте 10 м (на урoвне рoста челoвека скoрoсть ветра ниже в 1.5-2 раза). Если метеoстанция нахoдится в гoрoде или в лесу, тo скoрoсть ветра занижена на 2-4 м/с пo сравнению с oткрытым местoм. Скoрoсть ветра над акватoриями крупных рек и oзёр, а также на вершинах хoлмoв на 2-5 м/с выше, чем в oбычных услoвиях.
Атмoсфернoе давление в разных тoчках местнoсти мoжет значительнo oтличаться oт давления на метеoстанции, в зависимoсти oт услoвий рельефа (при пoдъёме на 10 м давление пoнижается примернo на 1 мм рт.ст.).